Weather History for KMQY - October, 2013

Change the Weather History Date:

Thursday, October 3, 2013

  Actual Average (KBNA) Record (KBNA)
Temperature  
Mean Temperature 76 °F 65 °F  
Max Temperature 86 °F 76 °F 92 °F (1903)
Min Temperature 65 °F 53 °F 35 °F (2003)
Degree Days  
Heating Degree Days 0    
Month to date heating degree days  
Since 1 July heating degree days  
Cooling Degree Days 11    
Month to date cooling degree days  
Year to date cooling degree days  
Growing Degree Days 26 (Base 50)    
Moisture  
Dew Point 66 °F    
Average Humidity 81    
Maximum Humidity 100    
Minimum Humidity 43    
Precipitation  
Precipitation 0.00 in 0.10 in 1.33 in (1893)
Month to date precipitation 0.30  
Year to date precipitation 35.96  
Snow  
Snow 0.00 in 0.00 in 0.00 in (2002)
Month to date snowfall 0.0  
Since 1 July snowfall 0.0  
Since 1 September snowfall 0.0  
Snow Depth -    
Sea Level Pressure  
Sea Level Pressure 30.09 in    
Wind  
Wind Speed 2 mph (South)    
Max Wind Speed 10 mph    
Max Gust Speed -    
Visibility 8 miles    
Events Rain    
T = Trace of Precipitation, MM = Missing Value Source: NWS Daily Summary

Daily Weather History Graph

Daily Weather History Graph

Search for Another Location

Airport or City:

Trip Planner

Search our weather history database for the weather conditions in past years. The results will help you decide how hot, cold, wet, or windy it might be!

Date:

Astronomy

Oct. 03, 2013 Rise Set
Actual Time 6:42 AM CDT 6:26 PM CDT
Civil Twilight 6:17 AM CDT 6:52 PM CDT
Nautical Twilight 5:47 AM CDT 7:21 PM CDT
Astronomical Twilight 5:17 AM CDT 7:51 PM CDT
Moon 5:17 AM CDT (10/3) 5:34 PM CDT (10/3)
Length of Visible Light 12h 34m
Length of Day
11h 43m
Waning Crescent, 2% of the Moon is Illuminated
Oct 3
Waning Crescent
Oct 4
New
Oct 11
First Quarter
Oct 18
Full
Oct 26
Last Quarter

Hourly Weather History & Observations

Time (CDT) Temp. Heat Index Dew Point Humidity Pressure Visibility Wind Dir Wind Speed Gust Speed Precip Events Conditions
12:56 AM 70.9 °F - 70.9 °F 100% 30.11 in 10.0 mi Calm Calm - N/A   Scattered Clouds
1:56 AM 70.9 °F - 70.9 °F 100% 30.10 in 10.0 mi South 3.5 mph - N/A   Mostly Cloudy
2:56 AM 68.9 °F - 68.9 °F 100% 30.09 in 5.0 mi Calm Calm - N/A   Clear
3:33 AM 69.8 °F - 69.8 °F 100% 30.07 in 2.0 mi Calm Calm - N/A   Clear
3:42 AM 69.8 °F - 69.8 °F 100% 30.07 in 6.0 mi Calm Calm - N/A   Clear
3:56 AM 68.0 °F - 68.0 °F 100% 30.09 in 3.0 mi SSE 3.5 mph - N/A   Partly Cloudy
4:18 AM 68.0 °F - 68.0 °F 100% 30.08 in 1.8 mi Calm Calm - N/A   Mostly Cloudy
4:23 AM 68.0 °F - 68.0 °F 100% 30.08 in 1.0 mi Calm Calm - N/A   Mostly Cloudy
4:41 AM 68.0 °F - 68.0 °F 100% 30.08 in 1.5 mi Calm Calm - N/A   Mostly Cloudy
4:43 AM 68.0 °F - 68.0 °F 100% 30.08 in 3.0 mi Calm Calm - N/A   Mostly Cloudy
4:56 AM 68.9 °F - 68.9 °F 100% 30.09 in 7.0 mi Calm Calm - N/A   Scattered Clouds
5:56 AM 68.9 °F - 68.9 °F 100% 30.11 in 7.0 mi SE 3.5 mph - N/A   Clear
6:56 AM 68.9 °F - 68.9 °F 100% 30.12 in 9.0 mi Calm Calm - N/A   Clear
7:56 AM 70.0 °F - 70.0 °F 100% 30.13 in 10.0 mi Calm Calm - N/A   Scattered Clouds
8:56 AM 74.8 °F - 68.9 °F 82% 30.14 in 10.0 mi SSW 5.8 mph - N/A   Partly Cloudy
9:56 AM 75.9 °F - 66.9 °F 74% 30.14 in 10.0 mi South 5.8 mph - N/A   Clear
10:56 AM 81.9 °F 84.8 °F 68.0 °F 63% 30.13 in 10.0 mi SSE 5.8 mph - N/A   Clear
11:56 AM 82.9 °F 84.6 °F 64.9 °F 54% 30.12 in 10.0 mi SW 5.8 mph - N/A   Scattered Clouds
12:56 PM 82.9 °F 84.0 °F 63.0 °F 51% 30.09 in 10.0 mi WSW 6.9 mph - N/A   Scattered Clouds
1:56 PM 84.9 °F 85.9 °F 63.0 °F 48% 30.07 in 10.0 mi Variable 6.9 mph - N/A   Scattered Clouds
2:56 PM 86.9 °F 87.8 °F 63.0 °F 45% 30.05 in 10.0 mi SSE 10.4 mph - N/A   Scattered Clouds
3:56 PM 84.9 °F 85.0 °F 61.0 °F 44% 30.04 in 10.0 mi SSW 10.4 mph - N/A   Partly Cloudy
4:56 PM 84.9 °F 84.8 °F 59.9 °F 43% 30.04 in 10.0 mi South 6.9 mph - N/A   Clear
5:56 PM 81.9 °F 82.8 °F 61.9 °F 51% 30.05 in 10.0 mi South 5.8 mph - N/A   Clear
6:56 PM 77.0 °F - 61.9 °F 59% 30.06 in 10.0 mi South 3.5 mph - 0.00 in Rain Light Rain
7:56 PM 70.9 °F - 63.0 °F 76% 30.07 in 10.0 mi Calm Calm - N/A   Clear
8:56 PM 66.9 °F - 63.0 °F 87% 30.09 in 10.0 mi South 3.5 mph - N/A   Clear
9:56 PM 66.9 °F - 61.9 °F 84% 30.10 in 10.0 mi SSE 3.5 mph - N/A   Clear
11:56 PM 65.8 °F - 61.9 °F 87% 30.10 in 10.0 mi South 3.5 mph - N/A   Clear